Weather History for KCOM - September, 2013

Change the Weather History Date:

Saturday, September 14, 2013

  Actual Average (KABI) Record (KABI)
Temperature  
Mean Temperature 81 °F 76 °F  
Max Temperature 95 °F 87 °F 101 °F (1965)
Min Temperature 67 °F 65 °F 47 °F (1945)
Degree Days  
Heating Degree Days 0 0  
Month to date heating degree days 0  
Since 1 July heating degree days 0  
Cooling Degree Days 16 11  
Month to date cooling degree days 185  
Year to date cooling degree days 2130  
Growing Degree Days 31 (Base 50)    
Moisture  
Dew Point 57 °F    
Average Humidity 44    
Maximum Humidity 75    
Minimum Humidity 25    
Precipitation  
Precipitation 0.00 in 0.08 in 2.85 in (1996)
Month to date precipitation 1.12  
Year to date precipitation 18.08  
Sea Level Pressure  
Sea Level Pressure 29.95 in    
Wind  
Wind Speed 4 mph (SE)    
Max Wind Speed 18 mph    
Max Gust Speed 30 mph    
Visibility 10 miles    
Events      
T = Trace of Precipitation, MM = Missing Value Source: NWS Daily Summary

Daily Weather History Graph

Daily Weather History Graph

Search for Another Location

Airport or City:

Trip Planner

Search our weather history database for the weather conditions in past years. The results will help you decide how hot, cold, wet, or windy it might be!

Date:

Astronomy

Sep. 14, 2013 Rise Set
Actual Time 7:21 AM CDT 7:44 PM CDT
Civil Twilight 6:56 AM CDT 8:08 PM CDT
Nautical Twilight 6:28 AM CDT 8:37 PM CDT
Astronomical Twilight 5:58 AM CDT 9:06 PM CDT
Moon 4:13 PM CDT (9/14) 2:09 AM CDT (9/14)
Length of Visible Light 13h 12m
Length of Day
12h 23m
Waxing Gibbous, 72% of the Moon is Illuminated
Sep 14
Waxing Gibbous
Sep 19
Full
Sep 26
Last Quarter
Oct 4
New
Oct 11
First Quarter

Hourly Weather History & Observations

Time (CDT) Temp. Heat Index Dew Point Humidity Pressure Visibility Wind Dir Wind Speed Gust Speed Precip Events Conditions
12:15 AM 79.0 °F - 53.8 °F 42% 29.94 in 10.0 mi Calm Calm - N/A   Scattered Clouds
12:35 AM 79.0 °F - 53.8 °F 42% 29.94 in 10.0 mi Calm Calm - N/A   Mostly Cloudy
12:55 AM 77.2 °F - 54.9 °F 46% 29.94 in 10.0 mi North 3.5 mph - N/A   Overcast
1:15 AM 78.3 °F - 55.8 °F 46% 29.94 in 10.0 mi NNE 6.9 mph - N/A   Overcast
1:35 AM 81.3 °F 80.8 °F 54.1 °F 39% 29.94 in 10.0 mi Calm Calm - N/A   Mostly Cloudy
1:55 AM 79.2 °F - 55.4 °F 44% 29.95 in 10.0 mi NE 5.8 mph - N/A   Mostly Cloudy
2:15 AM 79.0 °F - 56.3 °F 46% 29.95 in 10.0 mi NNE 4.6 mph - N/A   Overcast
2:35 AM 77.9 °F - 56.5 °F 48% 29.95 in 10.0 mi East 5.8 mph - N/A   Mostly Cloudy
2:55 AM 76.3 °F - 57.2 °F 52% 29.95 in 10.0 mi NE 3.5 mph - N/A   Mostly Cloudy
3:15 AM 76.8 °F - 56.8 °F 50% 29.95 in 10.0 mi Calm Calm - N/A   Mostly Cloudy
3:35 AM 75.7 °F - 57.9 °F 54% 29.94 in 10.0 mi Calm Calm - N/A   Scattered Clouds
3:55 AM 74.1 °F - 59.0 °F 59% 29.94 in 10.0 mi Calm Calm - N/A   Clear
4:15 AM 73.9 °F - 60.1 °F 62% 29.94 in 10.0 mi Calm Calm - N/A   Clear
4:35 AM 71.2 °F - 59.5 °F 66% 29.94 in 10.0 mi West 3.5 mph - N/A   Clear
4:55 AM 70.9 °F - 59.2 °F 66% 29.94 in 10.0 mi Calm Calm - N/A   Clear
5:15 AM 70.9 °F - 59.7 °F 68% 29.94 in 10.0 mi Calm Calm - N/A   Mostly Cloudy
5:35 AM 70.7 °F - 59.9 °F 69% 29.94 in 10.0 mi Calm Calm - N/A   Scattered Clouds
5:55 AM 70.7 °F - 60.1 °F 69% 29.94 in 10.0 mi Calm Calm - N/A   Clear
6:15 AM 69.4 °F - 59.4 °F 70% 29.95 in 10.0 mi Calm Calm - N/A   Clear
6:35 AM 68.4 °F - 59.2 °F 72% 29.95 in 10.0 mi SW 3.5 mph - N/A   Clear
6:55 AM 68.0 °F - 59.7 °F 75% 29.95 in 10.0 mi West 3.5 mph - N/A   Clear
7:15 AM 68.4 °F - 59.5 °F 73% 29.96 in 10.0 mi Calm Calm - N/A   Clear
7:35 AM 67.8 °F - 59.2 °F 74% 29.96 in 10.0 mi WNW 4.6 mph - N/A   Clear
7:55 AM 68.4 °F - 59.2 °F 72% 29.97 in 10.0 mi Calm Calm - N/A   Clear
8:15 AM 70.2 °F - 61.0 °F 73% 29.98 in 10.0 mi Calm Calm - N/A   Clear
8:35 AM 73.0 °F - 61.9 °F 68% 29.98 in 10.0 mi Calm Calm - N/A   Clear
8:55 AM 75.4 °F - 61.5 °F 62% 29.98 in 10.0 mi Calm Calm - N/A   Clear
9:15 AM 77.5 °F - 61.0 °F 57% 29.99 in 10.0 mi Calm Calm - N/A   Clear
9:35 AM 80.4 °F 81.2 °F 60.3 °F 50% 29.99 in 10.0 mi SW 3.5 mph - N/A   Clear
9:55 AM 81.9 °F 82.1 °F 59.2 °F 46% 29.99 in 10.0 mi West 4.6 mph - N/A   Clear
10:15 AM 83.8 °F 83.4 °F 58.3 °F 42% 30.00 in 10.0 mi West 4.6 mph - N/A   Clear
10:35 AM 85.5 °F 84.6 °F 58.1 °F 39% 30.00 in 10.0 mi WNW 5.8 mph - N/A   Clear
10:55 AM 86.5 °F 85.4 °F 57.6 °F 37% 30.00 in 10.0 mi West 5.8 mph - N/A   Clear
11:15 AM 86.5 °F 85.3 °F 56.8 °F 36% 30.00 in 10.0 mi SW 5.8 mph - N/A   Clear
11:35 AM 87.8 °F 86.1 °F 55.2 °F 33% 30.00 in 10.0 mi South 4.6 mph - N/A   Clear
11:55 AM 89.4 °F 87.9 °F 56.5 °F 33% 30.00 in 10.0 mi West 5.8 mph - N/A   Clear
12:15 PM 88.9 °F 87.1 °F 55.8 °F 32% 29.99 in 10.0 mi Calm Calm - N/A   Clear
12:35 PM 90.3 °F 88.5 °F 55.4 °F 31% 29.99 in 10.0 mi SE 4.6 mph - N/A   Clear
12:55 PM 89.6 °F 87.9 °F 55.9 °F 32% 29.98 in 10.0 mi Calm Calm - N/A   Clear
1:15 PM 90.0 °F 88.1 °F 55.8 °F 31% 29.98 in 10.0 mi Calm Calm - N/A   Scattered Clouds
1:35 PM 92.5 °F 90.7 °F 55.9 °F 29% 29.97 in 10.0 mi ESE 8.1 mph - N/A   Mostly Cloudy
1:55 PM 92.8 °F 90.9 °F 55.2 °F 28% 29.96 in 10.0 mi SE 5.8 mph - N/A   Scattered Clouds
2:15 PM 93.9 °F 92.0 °F 55.4 °F 27% 29.95 in 10.0 mi SSE 11.5 mph - N/A   Scattered Clouds
2:35 PM 93.0 °F 91.1 °F 55.0 °F 28% 29.94 in 10.0 mi Calm Calm - N/A   Scattered Clouds
2:55 PM 94.6 °F 92.6 °F 54.9 °F 26% 29.93 in 10.0 mi South 9.2 mph - N/A   Scattered Clouds
3:15 PM 94.8 °F 92.8 °F 55.2 °F 26% 29.92 in 10.0 mi SSE 3.5 mph 9.2 mph N/A   Scattered Clouds
3:35 PM 94.3 °F 92.1 °F 54.7 °F 26% 29.91 in 10.0 mi SE 11.5 mph - N/A   Mostly Cloudy
3:55 PM 93.7 °F 91.7 °F 54.7 °F 27% 29.91 in 10.0 mi SE 5.8 mph - N/A   Scattered Clouds
4:15 PM 95.2 °F 93.3 °F 54.9 °F 26% 29.90 in 10.0 mi ESE 6.9 mph 18.4 mph N/A   Scattered Clouds
4:35 PM 95.4 °F 93.2 °F 54.7 °F 25% 29.89 in 10.0 mi SE 9.2 mph - N/A   Mostly Cloudy
4:55 PM 94.1 °F 91.9 °F 54.7 °F 26% 29.89 in 10.0 mi East 11.5 mph - N/A   Mostly Cloudy
5:15 PM 93.2 °F 91.0 °F 54.1 °F 27% 29.89 in 10.0 mi ESE 3.5 mph - N/A   Clear
5:35 PM 94.3 °F 92.1 °F 54.3 °F 26% 29.89 in 10.0 mi SSE 5.8 mph - N/A   Clear
5:55 PM 93.9 °F 91.7 °F 54.5 °F 26% 29.89 in 10.0 mi ESE 6.9 mph - N/A   Clear
6:15 PM 93.2 °F 91.0 °F 54.5 °F 27% 29.89 in 10.0 mi SE 8.1 mph - N/A   Clear
6:35 PM 92.8 °F 90.6 °F 54.3 °F 27% 29.89 in 10.0 mi East 6.9 mph - N/A   Clear
6:55 PM 93.4 °F 91.3 °F 54.7 °F 27% 29.89 in 10.0 mi SE 12.7 mph 17.3 mph N/A   Mostly Cloudy
7:15 PM 91.4 °F 89.4 °F 54.7 °F 29% 29.90 in 10.0 mi ESE 10.4 mph - N/A   Scattered Clouds
7:35 PM 88.9 °F 87.5 °F 57.4 °F 34% 29.91 in 10.0 mi SSE 18.4 mph 23.0 mph N/A   Scattered Clouds
7:55 PM 84.4 °F 83.7 °F 57.7 °F 40% 29.92 in 10.0 mi SSW 18.4 mph 29.9 mph N/A   Mostly Cloudy
8:15 PM 83.7 °F 83.3 °F 58.5 °F 42% 29.92 in 10.0 mi SW 8.1 mph - N/A   Overcast
8:35 PM 84.9 °F 84.4 °F 59.0 °F 41% 29.93 in 10.0 mi ENE 3.5 mph - N/A   Overcast
8:55 PM 86.0 °F 85.2 °F 58.1 °F 39% 29.93 in 10.0 mi NE 8.1 mph - N/A   Overcast
9:15 PM 83.7 °F 84.1 °F 61.7 °F 47% 29.93 in 10.0 mi ENE 8.1 mph - N/A   Overcast
9:35 PM 83.1 °F 83.7 °F 61.3 °F 48% 29.94 in 10.0 mi ENE 6.9 mph - N/A   Overcast
9:55 PM 82.4 °F 83.4 °F 62.4 °F 51% 29.95 in 10.0 mi East 4.6 mph - N/A   Mostly Cloudy
10:15 PM 83.7 °F 83.8 °F 60.4 °F 45% 29.96 in 10.0 mi ESE 4.6 mph - N/A   Mostly Cloudy
10:35 PM 84.2 °F 84.0 °F 59.2 °F 43% 29.96 in 10.0 mi SSE 6.9 mph - N/A   Overcast
10:55 PM 84.0 °F 83.8 °F 59.0 °F 43% 29.96 in 10.0 mi SSE 9.2 mph - N/A   Overcast
11:15 PM 83.1 °F 82.9 °F 58.3 °F 43% 29.97 in 10.0 mi SSE 8.1 mph - N/A   Overcast
11:35 PM 81.7 °F 81.8 °F 58.6 °F 45% 29.96 in 10.0 mi South 6.9 mph - N/A   Mostly Cloudy
11:55 PM 80.4 °F 81.0 °F 59.0 °F 48% 29.96 in 10.0 mi South 6.9 mph - N/A   Scattered Clouds